Westhampton Beach, NY

10:13 PM EDT on March 28, 2017 (GMT -0400)
The Gabreski

Weather History for KFOK - August, 2014

Change the Weather History Date:

Saturday, August 23, 2014

  Actual Average Record
Temperature  
Mean Temperature 66 °F -  
Max Temperature 75 °F 76 °F 86 °F (2006)
Min Temperature 55 °F 60 °F 46 °F (2016)
Cooling Degree Days 1    
Growing Degree Days 16 (Base 50)    
Moisture  
Dew Point 59 °F    
Average Humidity 73    
Maximum Humidity 89    
Minimum Humidity 54    
Precipitation  
Precipitation 0.00 in - - ()
Sea Level Pressure  
Sea Level Pressure 30.10 in    
Wind  
Wind Speed 7 mph (ENE)    
Max Wind Speed 14 mph    
Max Gust Speed 22 mph    
Visibility 10 miles    
Events      
Averages and records for this station are not official NWS values.
T = Trace of Precipitation, MM = Missing Value Source: NWS Daily Summary

Daily Weather History Graph

Daily Weather History Graph

Search for Another Location

Airport or City:

Trip Planner

Search our weather history database for the weather conditions in past years. The results will help you decide how hot, cold, wet, or windy it might be!

Date:

Astronomy

Aug. 23, 2014 Rise Set
Actual Time 6:08 AM EDT 7:37 PM EDT
Civil Twilight 5:39 AM EDT 8:05 PM EDT
Nautical Twilight 5:04 AM EDT 8:40 PM EDT
Astronomical Twilight 4:28 AM EDT 9:16 PM EDT
Moon 4:21 AM EDT (8/23) 6:20 PM EDT (8/23)
Length of Visible Light 14h 26m
Length of Day
13h 28m
Waning Crescent, 3% of the Moon is Illuminated
Aug 23
Waning Crescent
Aug 25
New
Sep 2
First Quarter
Sep 8
Full
Sep 15
Last Quarter

Hourly Weather History & Observations

Time (EDT) Temp. Dew Point Humidity Pressure Visibility Wind Dir Wind Speed Gust Speed Precip Events Conditions
12:53 AM 66.0 °F 61.0 °F 84% 30.08 in 10.0 mi ENE 4.6 mph - N/A   Overcast
1:53 AM 66.0 °F 61.0 °F 84% 30.07 in 10.0 mi ENE 5.8 mph - N/A   Mostly Cloudy
2:53 AM 64.9 °F 60.1 °F 84% 30.06 in 10.0 mi ENE 6.9 mph - N/A   Partly Cloudy
3:53 AM 64.9 °F 60.1 °F 84% 30.06 in 10.0 mi ENE 4.6 mph - N/A   Clear
5:53 AM 64.9 °F 59.0 °F 81% 30.06 in 10.0 mi NE 6.9 mph - N/A   Partly Cloudy
6:53 AM 66.9 °F 60.1 °F 79% 30.08 in 10.0 mi NE 8.1 mph - N/A   Partly Cloudy
8:53 AM 68.0 °F 60.1 °F 76% 30.10 in 10.0 mi NE 9.2 mph - N/A   Scattered Clouds
9:53 AM 70.0 °F 60.1 °F 71% 30.11 in 10.0 mi ENE 10.4 mph 18.4 mph N/A   Scattered Clouds
10:02 AM 70.0 °F 60.1 °F 71% 30.11 in 10.0 mi ENE 11.5 mph - N/A   Mostly Cloudy
10:53 AM 71.1 °F 59.0 °F 66% 30.11 in 10.0 mi NE 13.8 mph - N/A   Overcast
11:02 AM 72.0 °F 60.1 °F 66% 30.11 in 10.0 mi NE 11.5 mph - N/A   Overcast
11:41 AM 73.0 °F 59.0 °F 61% 30.11 in 10.0 mi ENE 10.4 mph 19.6 mph N/A   Overcast
11:49 AM 73.4 °F 59.0 °F 61% 30.11 in 10.0 mi NE 11.5 mph - N/A   Overcast
11:53 AM 72.0 °F 59.0 °F 64% 30.11 in 10.0 mi NE 10.4 mph - N/A   Overcast
12:53 PM 75.9 °F 57.9 °F 54% 30.10 in 10.0 mi NE 12.7 mph 21.9 mph N/A   Scattered Clouds
1:53 PM 73.0 °F 59.0 °F 61% 30.11 in 10.0 mi SE 6.9 mph 17.3 mph N/A   Mostly Cloudy
2:53 PM 73.9 °F 60.1 °F 62% 30.10 in 10.0 mi Variable 6.9 mph - N/A   Overcast
3:53 PM 72.0 °F 60.1 °F 66% 30.10 in 10.0 mi East 8.1 mph - N/A   Overcast
5:53 PM 72.0 °F 60.1 °F 66% 30.11 in 10.0 mi SE 3.5 mph - N/A   Overcast
6:53 PM 70.0 °F 60.1 °F 71% 30.10 in 10.0 mi East 3.5 mph - N/A   Overcast
7:53 PM 68.0 °F 59.0 °F 73% 30.11 in 10.0 mi East 3.5 mph - N/A   Overcast
8:53 PM 64.0 °F 57.9 °F 80% 30.12 in 10.0 mi Calm Calm - N/A   Clear
9:53 PM 60.1 °F 55.9 °F 86% 30.13 in 10.0 mi Calm Calm - N/A   Clear
10:53 PM 57.0 °F 54.0 °F 89% 30.13 in 10.0 mi Calm Calm - N/A   Clear
11:53 PM 55.0 °F 52.0 °F 89% 30.14 in 10.0 mi Calm Calm - N/A   Clear